Location: Unspecified
(0.0000°N, 0.0000°E)
Time: 13:20:03
(UTC+00:00)

LightSail 2 - Pass Details

Date: 11 September 2019
Orbit: 699 x 732 km, 24.0° (Epoch: 17 September)

Event Time Altitude Azimuth Distance (km) Brightness Sun altitude
Rises 19:29:46 0° 264° (W) 3,118 9.8 -23.2°
Reaches altitude 10° 19:32:54 10° 245° (WSW) 2,192 8.5 -24.0°
Maximum altitude 19:36:27 18° 202° (SSW) 1,688 7.2 -24.9°
Enters shadow 19:38:04 16° 179° (S) 1,802 7.1 -25.3°
